Location: D�derode
(51.8092°N, 10.1065°E)
Time: 06:26:03
(UTC+00:00)

Cosmos 1605 Rocket - Pass Details

Date: 01 December 2020
Orbit: 945 x 1005 km, 82.9° (Epoch: 23 January)

Event Time Altitude Azimuth Distance (km) Brightness Sun altitude
Rises 18:14:42 0° 350° (N) 3,633 7.1 -27.1°
Reaches altitude 10° 18:17:13 10° 353° (N) 2,681 6.4 -27.5°
Enters shadow 18:21:54 53° 13° (NNE) 1,152 4.2 -28.3°
